Location: Gro� Glienicke
(52.4675°N, 13.1079°E)
Time: 01:03:44
(UTC+00:00)

ATLAS 5 CENTAUR R/B - Pass Details

Date: 06 July 2020
Orbit: 274 x 14306 km, 60.7° (Epoch: 11 August)

Event Time Altitude Azimuth Distance (km) Brightness Sun altitude
Rises 22:12:55 0° 300° (WNW) 1,982 5.4 -13.9°
Reaches altitude 10° 22:15:08 10° 333° (NNW) 1,123 4.7 -13.9°
Maximum altitude 22:16:22 14° 11° (N) 1,012 4.2 -14.0°
Drops below altitude 10° 22:17:53 10° 48° (NE) 1,396 4.3 -14.0°
Sets 22:21:25 0° 75° (ENE) 3,015 5.6 -14.1°
